Weather History for Cork, Ireland

Change the Weather History Date:

Sunday, January 12, 2014

  Actual Average Record
Temperature  
Mean Temperature 43 °F -  
Max Temperature 49 °F 46 °F 53 °F (2007)
Min Temperature 35 °F 37 °F 32 °F (2000)
Degree Days  
Heating Degree Days 22    
Moisture  
Dew Point 43 °F    
Average Humidity 93    
Maximum Humidity 100    
Minimum Humidity 81    
Precipitation  
Precipitation 0.71 in 0.18 in - ()
Sea Level Pressure  
Sea Level Pressure 29.64 in    
Wind  
Wind Speed 22 mph ()    
Max Wind Speed 32 mph    
Max Gust Speed 45 mph    
Visibility 7.9 miles    
Events Rain    
Averages and records for this station are not official NWS values.
T = Trace of Precipitation, MM = Missing Value Source: Averaged Metar Reports

Daily Weather History Graph

Daily Weather History Graph

Search for Another Location

Airport:

Trip Planner

Search our weather history database for the weather conditions in past years. The results will help you decide how hot, cold, wet, or windy it might be!

Date:

Astronomy

Jan. 12, 2014 Rise Set
Actual Time 8:36 AM GMT 4:48 PM GMT
Civil Twilight 7:57 AM GMT 5:27 PM GMT
Nautical Twilight 7:15 AM GMT 6:09 PM GMT
Astronomical Twilight 6:34 AM GMT 6:50 PM GMT
Moon 2:08 PM GMT (1/12) 5:19 AM GMT (1/12)
Length of Visible Light 9h 29m
Length of Day
8h 11m
Waxing Gibbous, 88% of the Moon is Illuminated
Jan 12
Waxing Gibbous
Jan 16
Full
Jan 24
Last Quarter
Jan 30
New
Feb 6
First Quarter

Hourly Weather History & Observations

Time (GMT) Temp. Windchill Dew Point Humidity Pressure Visibility Wind Dir Wind Speed Gust Speed Precip Events Conditions
12:00 AM 46 °F - 45 °F 95% 29.93 in 16 mi SSE 24.6 mph - - Rain Light Rain Showers
12:00 AM 46.4 °F 38.1 °F 44.6 °F 93% 29.92 in 6.2 mi SSE 24.2 mph - N/A Rain Light Rain Showers
12:30 AM 46.4 °F 37.7 °F 46.4 °F 100% 29.89 in 6.2 mi SSE 26.5 mph - N/A   Mostly Cloudy
1:00 AM 47 °F - 46 °F 95% 29.91 in 16 mi SSE 24.6 mph - - Rain Light Rain Showers
1:00 AM 46.4 °F 37.9 °F 46.4 °F 100% 29.89 in 6.2 mi SSE 25.3 mph 38.0 mph N/A   Mostly Cloudy
1:30 AM 48.2 °F - 46.4 °F 93% 29.86 in 6.2 mi SSE 27.6 mph - N/A   Mostly Cloudy
2:00 AM 47 °F - 46 °F 95% 29.86 in 17 mi SSE 26.8 mph - -   Overcast
2:00 AM 48.2 °F - 46.4 °F 93% 29.83 in 6.2 mi East 27.6 mph 39.1 mph N/A   Mostly Cloudy
2:30 AM 48.2 °F - 46.4 °F 93% 29.83 in 6.2 mi SSE 28.8 mph - N/A   Mostly Cloudy
3:00 AM 48 °F - 46 °F 92% 29.84 in 19 mi SSE 26.8 mph - -   Partly Cloudy
3:00 AM 48.2 °F - 46.4 °F 93% 29.83 in 6.2 mi SSE 27.6 mph 39.1 mph N/A   Mostly Cloudy
3:30 AM 48.2 °F - 46.4 °F 93% 29.80 in 6.2 mi SSE 29.9 mph - N/A   Mostly Cloudy
4:00 AM 48 °F - 46 °F 91% 29.81 in 19 mi SSE 24.6 mph - -   Overcast
4:00 AM 48.2 °F - 46.4 °F 93% 29.80 in 6.2 mi SSE 25.3 mph 36.8 mph N/A   Mostly Cloudy
4:30 AM 48.2 °F - 46.4 °F 93% 29.77 in 6.2 mi SSE 27.6 mph - N/A   Mostly Cloudy
5:00 AM 48 °F - 46 °F 90% 29.78 in 19 mi SSE 26.8 mph - -   Overcast
5:00 AM 48.2 °F - 46.4 °F 93% 29.77 in 6.2 mi SSE 27.6 mph 43.7 mph N/A   Mostly Cloudy
5:30 AM 48.2 °F - 46.4 °F 93% 29.74 in 6.2 mi SSE 26.5 mph - N/A   Light Drizzle
6:00 AM 47 °F - 45 °F 90% 29.75 in 19 mi SSE 29.1 mph - - Rain Light Drizzle
6:00 AM 48.2 °F - 44.6 °F 87% 29.74 in 6.2 mi SSE 28.8 mph 43.7 mph N/A   Mostly Cloudy
6:30 AM 46.4 °F 36.9 °F 44.6 °F 93% 29.71 in 6.2 mi SSE 32.2 mph 44.9 mph N/A Rain Light Rain
7:00 AM 46 °F - 45 °F 93% 29.72 in 10 mi SSE 31.3 mph - - Rain Light Rain
7:00 AM 46.4 °F 36.9 °F 44.6 °F 93% 29.68 in 6.2 mi SSE 32.2 mph 43.7 mph N/A Rain Light Rain
7:30 AM 46.4 °F 37.9 °F 44.6 °F 93% 29.68 in 6.2 mi SSE 25.3 mph - N/A Rain Light Rain
8:00 AM 47 °F - 45 °F 92% 29.69 in 10 mi SSE 29.1 mph - - Rain Light Rain
8:00 AM 46.4 °F 37.4 °F 44.6 °F 93% 29.65 in 6.2 mi SSE 28.8 mph - N/A Rain Light Rain
8:30 AM 46.4 °F 37.4 °F 44.6 °F 93% 29.65 in 3.7 mi SSE 28.8 mph - N/A Rain Light Rain
9:00 AM 47 °F - 46 °F 92% 29.67 in 4 mi SSE 26.8 mph - - Rain Light Rain
9:00 AM 46.4 °F 37.7 °F 46.4 °F 100% 29.65 in 4.3 mi SSE 26.5 mph - N/A Rain Light Rain
9:30 AM 46.4 °F 37.9 °F 46.4 °F 100% 29.62 in 4.3 mi SSE 25.3 mph - N/A Rain Light Rain
10:00 AM 47 °F - 46 °F 96% 29.62 in 3 mi SSE 26.8 mph - - Rain Light Rain
10:00 AM 48.2 °F - 46.4 °F 93% 29.59 in 3.1 mi SSE 26.5 mph - N/A Rain Light Rain
10:30 AM 48.2 °F - 46.4 °F 93% 29.59 in 3.7 mi SSE 27.6 mph 42.6 mph N/A Rain Light Rain
11:00 AM 47 °F - 46 °F 97% 29.59 in 3 mi SSE 29.1 mph - - Rain Light Rain
11:00 AM 48.2 °F - 46.4 °F 93% 29.56 in 3.1 mi SSE 28.8 mph - N/A Rain Light Rain
11:30 AM 48.2 °F - 46.4 °F 93% 29.50 in 3.1 mi SSE 29.9 mph - N/A Rain Rain
12:00 PM 47 °F - 47 °F 98% 29.50 in 3 mi SSE 29.1 mph - - Rain Rain
12:00 PM 48.2 °F - 46.4 °F 93% 29.47 in 3.1 mi SSE 29.9 mph - N/A Rain Rain
12:30 PM 48.2 °F - 46.4 °F 93% 29.44 in 3.7 mi SSE 29.9 mph 42.6 mph N/A Rain Light Rain
1:00 PM 48 °F - 47 °F 97% 29.44 in 2 mi SSE 26.8 mph - - Rain Light Rain
1:00 PM 48.2 °F - 48.2 °F 100% 29.42 in 2.5 mi SSE 27.6 mph - N/A Rain Light Rain
1:30 PM 48.2 °F - 48.2 °F 100% 29.42 in 5.0 mi South 18.4 mph - N/A   Mostly Cloudy
2:00 PM 46 °F - 44 °F 91% 29.47 in 25 mi West 22.4 mph - - Rain Light Rain
2:00 PM 46.4 °F 38.5 °F 44.6 °F 93% 29.44 in 6.2 mi West 21.9 mph - N/A   Mostly Cloudy
2:30 PM 46.4 °F 39.8 °F 42.8 °F 87% 29.47 in 6.2 mi West 16.1 mph - N/A   Scattered Clouds
3:00 PM 45 °F - 43 °F 88% 29.52 in 25 mi West 13.4 mph - -   Partly Cloudy
3:00 PM 44.6 °F 38.1 °F 42.8 °F 93% 29.50 in 6.2 mi West 13.8 mph - N/A   Scattered Clouds
3:30 PM 46.4 °F 40.4 °F 41.0 °F 81% 29.50 in 6.2 mi WSW 13.8 mph - N/A   Scattered Clouds
4:00 PM 44 °F - 41 °F 83% 29.55 in 22 mi WSW 8.9 mph - -   Scattered Clouds
4:00 PM 44.6 °F 39.7 °F 41.0 °F 87% 29.53 in 6.2 mi WSW 9.2 mph - N/A   Partly Cloudy
4:30 PM 42.8 °F 37.5 °F 41.0 °F 93% 29.53 in 6.2 mi WSW 9.2 mph - N/A   Partly Cloudy
5:00 PM 42 °F - 40 °F 88% 29.56 in 19 mi SW 11.2 mph - -   Scattered Clouds
5:00 PM 41.0 °F 34.7 °F 39.2 °F 93% 29.53 in 6.2 mi SW 10.4 mph - N/A   Partly Cloudy
5:30 PM 41.0 °F 35.2 °F 39.2 °F 93% 29.53 in 6.2 mi SW 9.2 mph - N/A   Partly Cloudy
6:00 PM 40 °F - 39 °F 93% 29.59 in 19 mi SW 8.9 mph - -   Partly Cloudy
6:00 PM 39.2 °F 33.6 °F 39.2 °F 100% 29.56 in 6.2 mi SW 8.1 mph - N/A   Partly Cloudy
6:30 PM 41.0 °F 35.2 °F 39.2 °F 93% 29.56 in 6.2 mi SW 9.2 mph - N/A   Scattered Clouds
7:00 PM 40 °F - 39 °F 93% 29.60 in 19 mi SW 8.9 mph - - Rain Light Rain Showers
7:00 PM 41.0 °F 35.2 °F 39.2 °F 93% 29.56 in 6.2 mi SW 9.2 mph - N/A   Partly Cloudy
7:30 PM 41.0 °F 33.9 °F 39.2 °F 93% 29.56 in 6.2 mi SW 12.7 mph 25.3 mph N/A   Scattered Clouds
8:00 PM 40 °F - 36 °F 82% 29.60 in 19 mi SW 11.2 mph - -   Scattered Clouds
8:00 PM 39.2 °F 32.5 °F 37.4 °F 93% 29.56 in 6.2 mi SW 10.4 mph - N/A   Partly Cloudy
8:30 PM 39.2 °F 32.0 °F 35.6 °F 87% 29.59 in 6.2 mi SW 11.5 mph - N/A   Partly Cloudy
9:00 PM 40 °F - 37 °F 86% 29.62 in 19 mi SW 13.4 mph - -   Partly Cloudy
9:00 PM 39.2 °F 31.6 °F 37.4 °F 93% 29.59 in 6.2 mi SW 12.7 mph - N/A   Scattered Clouds
9:30 PM 39.2 °F 32.5 °F 37.4 °F 93% 29.59 in 6.2 mi SW 10.4 mph - N/A   Partly Cloudy
10:00 PM 38 °F - 36 °F 89% 29.62 in 12 mi SW 11.2 mph - -   Scattered Clouds
10:00 PM 37.4 °F 30.3 °F 35.6 °F 93% 29.59 in 6.2 mi SW 10.4 mph - N/A   Partly Cloudy
10:30 PM 39.2 °F 30.5 °F 37.4 °F 93% 29.59 in 6.2 mi SW 16.1 mph - N/A Rain Light Rain Showers
11:00 PM 37 °F - 35 °F 91% 29.62 in 12 mi WSW 8.9 mph - - Rain Light Rain Showers
11:00 PM 37.4 °F 31.4 °F 35.6 °F 93% 29.59 in 6.2 mi WSW 8.1 mph - N/A   Partly Cloudy
11:30 PM 35.6 °F 29.9 °F 35.6 °F 100% 29.59 in 6.2 mi SW 6.9 mph - N/A   Partly Cloudy